Volver al catálogo

STARLINK-33924

ActivoComunicacionesSSO
NORAD 64149·PAYLOAD·🇺🇸 United States

Lanzado May 27, 2025 desde Vandenberg Space Force Base

Loading…

Próximos Pases (próximas 24 horas)

TLE

ActualizadoSource: CelesTrak SupGP

Época: Sep 14, 2026, 22:27 UTC

1 64149C 25112D   26257.93590278  .00027185  00000+0  84408-3 0  2576
2 64149  97.2837 305.0559 0001248  91.5658 277.3945 15.33418495    19

Sigue STARLINK-33924 en tiempo real con AllMySat

Download on the App Store